Location: Castellar de la Frontera
(36.3200°N, 5.4500°W)
Time: 02:25:37
(UTC+02:00)

ISS - Pass Details

Date: 22 July 2018
Orbit: 402 x 408 km, 51.6° (Epoch: 17 July)

Event Time Altitude Azimuth Distance (km) Brightness Sun altitude
Rises 03:41:53 0° 325° (NW) 2,326 0.5 -30.8°
Reaches altitude 10° 03:45:18 10° 3° (N) 1,465 -0.2 -30.5°
Maximum altitude 03:46:20 11° 22° (NNE) 1,398 -0.2 -30.4°
Drops below altitude 10° 03:47:22 10° 40° (NE) 1,464 -0.2 -30.4°
Sets 03:50:46 0° 78° (ENE) 2,323 0.5 -30.1°
